www.pogodaiklimat.ru

Погода и климат >> Архив погоды >> Индия >> Mangalore Airport


ПОГОДА в Mangalore Airport

  • Прогноз погоды в Mangalore Airport
  • Монитор погоды в Mangalore Airport
  • Климат города

АРХИВ ПОГОДЫ в Mangalore Airport

Время (UTC), дата Ветер
(напр.,м/с)
 
Видим.   Явления Облачность Т
(С)
Тd
(С)
f
(%)
Тe
(С)
Тes
(С)
Комфортность P
(гПа)
Po
(гПа)
Тmin
(С)
Tmax
(С)
R
(мм)
R24
(мм)
S
(см)
06 8.08 З 3 4000 м {морось} 9/5 240 м
[Frnb Ac As]
+27.0 +24.1 84 +37 +41 очень
душно
1007.9 996.4 0.0
09 8.08 З 4 4000 м в посл. час дождь {морось} 10/5 180 м
[Frnb Ac As]
+25.4 +23.3 88 +34 +36 очень
душно
1006.2 994.7 4
12 8.08 З 4 4000 м дымка {дождь} 10/3 360 м
[Cu Sc Ac As]
+26.4 +23.8 86 +36 +37 очень
душно
1006.1 994.6 +27.2 4
15 8.08 З 3 4000 м 9/5 240 м
[St Ac trans Ci fib]
+26.2 +23.9 87 +36 +36 очень
душно
1007.5 996.0 4
18 8.08 З 5 4000 м {дождь} 9/5 180 м
[St Ac As Ci fib]
+25.8 +23.2 86 +35 +35 очень
душно
1008.4 996.9 8
21 8.08 З 5 4000 м гроза без осадков 9/5 180 м
[Cb cap Ac As Ci fib]
+25.8 +23.2 86 +35 +35 очень
душно
1007.3 995.8 10
00 9.08 З 3 4000 м {гроза, дождь} 9/5 180 м
[St Ac As Ci fib]
+25.6 +23.9 90 +35 +35 очень
душно
1007.9 996.4 10
03 9.08 З 2 4000 м 9/5 180 м
[St Ac As Ci fib]
+25.2 +23.1 88 +34 +36 очень
душно
1010.2 998.6 +23.5 +27.2 10
06 9.08 З 5 4000 м 9/4 240 м
[Cu Sc Ac trans Ci fib]
+28.0 +25.4 86 +41 +45 опасность
перегрева
1010.6 999.1
09 9.08 З 5 4000 м 9/4 360 м
[Cu Sc Ac trans Ci fib]
+28.0 +24.6 82 +40 +43 очень
душно
1009.2 997.7
12 9.08 З 5 4000 м {дождь} 9/4 360 м
[Cu Sc Ac trans Ci fib]
+27.8 +24.3 81 +39 +39 очень
душно
1009.2 997.6 +28.4 6
15 9.08 З 2 4000 м 6/3 360 м
[Cu Sc Ac trans Ci fib]
+26.2 +24.5 90 +37 +37 очень
душно
1010.7 999.1 6
18 9.08 штиль 0 4000 м в посл. час дождь 8/3 360 м
[Cu Sc Ac trans Ci fib]
+24.4 +23.2 93 +33 +33 очень
душно
1011.8 1000.2 8
21 9.08 З 2 4000 м 6/3 360 м
[Sc Ac trans Ci fib]
+24.8 +23.9 95 +34 +34 очень
душно
1010.1 998.5 8
00 10.08 З 2 4000 м 9/4 360 м
[Sc Ac As Ci fib]
+25.2 +23.7 91 +34 +34 очень
душно
1010.4 998.8 8
03 10.08 С 5 2000 м слабый дождь 10/5 180 м
[Frnb Ac As Ci fib]
+25.6 +24.1 91 +35 +36 очень
душно
1012.2 1000.6 +23.2 +28.4 10
06 10.08 С 5 4000 м осадки на расстоянии {дождь} 10/5 180 м
[Frnb Ac As]
+25.0 +23.8 93 +34 +36 очень
душно
1012.1 1000.5 34
09 10.08 СЗ 3 4000 м в посл. час дождь {гроза} 9/5 180 м
[Cb cap Ac As Ci sp]
+24.2 +23.0 93 +32 +36 очень
душно
1010.4 998.8 49
12 10.08 С 4 4000 м слабый дождь {гроза} 10/5 180 м
[Cb cap Ac As Ci sp]
+24.0 +22.8 93 +32 +32 очень
душно
1010.6 999.0 +25.4 79
15 10.08 штиль 0 4000 м слабый дождь 10/5 120 м
[Frnb Ac As]
+23.4 +21.9 91 +32 +32 очень
душно
1011.8 1000.2 82
18 10.08 штиль 0 2000 м в посл. час дождь 10/5 180 м
[Frnb Ac As Ci fib]
+23.4 +21.9 91 +32 +32 очень
душно
1012.7 1001.1 85
21 10.08 штиль 0 4000 м слабый дождь 10/5 90 м
[Frnb Ac As Ci fib]
+23.4 +21.9 91 +32 +32 очень
душно
1010.6 999.0 87
00 11.08 З 5 4000 м слабый дождь 10/5 120 м
[Frnb Ac As]
+24.0 +22.8 93 +32 +32 очень
душно
1009.9 998.3 92
03 11.08 З 5 4000 м дождь 10/5 120 м
[Frnb Ac As Ci fib]
+24.0 +22.5 91 +31 +32 очень
душно
1011.6 1000.0 +22.6 +25.4 99
06 11.08 З 3 4000 м слабый дождь 10/5 180 м
[Frnb Ac As Ci sp]
+24.0 +22.2 90 +31 +35 очень
душно
1011.5 999.9 5
09 11.08 З 6 4000 м {дождь} 8/5 360 м
[Cu Sc Ac trans Ci fib]
+27.6 +23.8 80 +38 +41 очень
душно
1009.3 997.8 7
12 11.08 З 5 4000 м {дождь} 9/5 360 м
[Cu Sc Ac trans Ci fib]
+27.0 +23.5 81 +37 +37 очень
душно
1008.9 997.4 +27.9 7
15 11.08 З 3 4000 м 9/5 360 м
[Cu Sc Ac trans Ci fib]
+26.2 +24.2 89 +36 +36 очень
душно
1010.0 998.5 7
18 11.08 З 6 4000 м слабый дождь 8/5 360 м
[Cu Sc Ac trans Ci fib]
+25.6 +23.9 90 +35 +35 очень
душно
1010.5 998.9 8
21 11.08 СЗ 5 4000 м слабый дождь 9/5 240 м
[Frnb Ac As Ci fib]
+23.2 +22.0 93 +32 +32 очень
душно
1008.6 997.0 20
00 12.08 СЗ 3 4000 м слабый дождь 9/5 180 м
[Frnb Ac As Ci fib]
+23.8 +22.9 95 +32 +32 очень
душно
1008.2 996.6 26
03 12.08 З 3 2000 м слабый дождь 10/5 120 м
[Frnb As op]
+23.8 +22.6 93 +31 +32 очень
душно
1010.0 998.4 +22.6 +27.9 37
06 12.08 З 3 4000 м дымка {дождь, морось} 10/5 150 м
[Frnb Ac As]
+26.0 +24.6 92 +37 +39 очень
душно
1009.5 997.9 3
09 12.08 З 3 4000 м в посл. час дождь 10/5 180 м
[Frnb Ac As Ci fib]
+25.4 +23.9 91 +35 +38 очень
душно
1007.5 996.0 7
12 12.08 З 6 2000 м слабый ливневой дождь, в посл. час гроза 10/5 90 м
[Cb cap Ac As Ci fib]
+24.0 +22.5 91 +31 +32 очень
душно
1006.9 995.3 +26.9 21
15 12.08 СЗ 2 4000 м слабый дождь {гроза} 10/5 150 м
[Cb cap Ac As Ci sp]
+23.8 +22.0 90 +31 +31 очень
душно
1008.9 997.3 45
18 12.08 З 3 4000 м слабый дождь {гроза} 10/5 180 м
[Frnb Ac As Ci sp]
+23.8 +21.4 86 +30 +30 очень
душно
1009.2 997.6 48
21 12.08 З 2 4000 м дымка {дождь} 9/4 180 м
[St Ac As Ci fib]
+23.8 +21.1 85 +30 +30 очень
душно
1007.0 995.4 49
00 13.08 З 2 4000 м слабый дождь 10/5 100 м
[Frnb Ac As Ci fib]
+25.0 +23.2 90 +33 +33 очень
душно
1006.4 994.9 49
03 13.08 ЮЗ 2 4000 м дымка {дождь} 10/5 180 м
[Frnb Ac As Ci sp]
+25.4 +24.2 93 +35 +37 очень
душно
1008.1 996.6 +22.5 +26.9 51
06 13.08 ЮЗ 2 4000 м слабая морось {дождь} 10/5 180 м
[Frnb Ac As Ci sp]
+24.2 +23.0 93 +32 +38 очень
душно
1008.6 997.0 9
09 13.08 З 4 4000 м слабая морось 10/4 180 м
[Frnb Ac As Ci fib]
+27.4 +24.8 86 +39 +42 очень
душно
1007.1 995.7 10
12 13.08 Ю 3 4000 м слабый дождь {морось} 10/4 90 м
[Frnb Ac As]
+23.4 +22.2 93 +32 +32 очень
душно
1007.2 995.6 +27.4 15
15 13.08 штиль 0 2000 м слабый дождь 10/5 90 м
[Frnb Ac As]
+23.2 +21.7 91 +31 +31 очень
душно
1008.8 997.2 47
18 13.08 З 3 2000 м слабый дождь 10/5 90 м
[Frnb Ac As]
+24.2 +23.3 95 +32 +32 очень
душно
1009.5 997.9 50
21 13.08 З 3 2000 м в посл. час дождь 10/5 120 м
[Frnb Ac As]
+25.2 +24.3 95 +35 +35 очень
душно
1006.8 995.3 51
00 14.08 З 4 4000 м в посл. час морось {дождь} 10/4 90 м
[St Ac As Ci fib]
+24.8 +23.6 93 +34 +34 очень
душно
1006.2 994.7 63
03 14.08 З 6 4000 м слабый дождь 10/5 150 м
[Frnb Ac As]
+25.6 +23.9 90 +35 +35 очень
душно
1007.3 995.8 +22.0 +27.5 66
06 14.08 З 7 2000 м слабый дождь {морось} 10/5 120 м
[Frnb Ac As]
+25.8 +24.4 92 +36 +37 очень
душно
1007.9 996.4 2
09 14.08 СЗ 9 4000 м слабый дождь 10/5 120 м
[Cb cap Ac As]
+25.2 +23.7 91 +34 +34 очень
душно
1005.9 994.4 9
12 14.08 З 4 4000 м в посл. час дождь 9/5 150 м
[Frnb Ac As Ci sp]
+24.8 +23.3 91 +33 +34 очень
душно
1005.1 993.6 +25.9 29
15 14.08 СЗ 6 2000 м слабый дождь 10/6 90 м
[Cb cap Ac As]
+24.2 +23.0 93 +32 +32 очень
душно
1007.0 995.5 53
18 14.08 СЗ 6 4000 м слабый дождь 10/6 120 м
[Cb cap Ac As]
+24.0 +22.5 91 +31 +31 очень
душно
1007.8 996.2 62
21 14.08 З 6 4000 м дымка {дождь} 10/5 150 м
[Frnb Ac As Ci fib]
+25.0 +23.8 93 +34 +34 очень
душно
1005.7 994.2 66
00 15.08 З 5 4000 м дымка {дождь} 9/5 150 м
[St Ac As Ci fib]
+25.2 +23.4 90 +34 +34 очень
душно
1006.0 994.5 66
03 15.08 СЗ 6 4000 м дымка {дождь} 10/5 150 м
[Frnb Ac As Ci fib]
+26.4 +23.5 84 +36 +36 очень
душно
1007.2 995.7 +23.0 +25.9 66

 

Местоположение метеостанции Mangalore Airport (Karnataka, Индия): широта 12.92 долгота 74.88 высота над уровнем моря 102 м.

В архиве по умолчанию представлена погода в Mangalore Airport за последнюю неделю. Архивные данные за месяц целиком и за предыдущие месяцы, начиная с января 2011 года, Вы можете получить, выбрав интересующий диапазон дат из раскрывающегося списка и нажав кнопку "Ввод!".


*Определитесь, кто Вы:
робот инопланетянин человек

Внимание! Время в таблицах - всемирное. Для получения местного времени необходимо прибавить поправку, которая в Mangalore Airport равна 5.5 ч.

Смотрите также архив погоды в соседних городах и на ближайших метеорологических станциях:

Погода в Mangalore (Karnataka, Индия) (6 км)
Погода в Agumbe Emo (Karnataka, Индия) (68 км)
Погода в Chickmagalur (Karnataka, Индия) (101 км)
Погода в Madikeri (Karnataka, Индия) (108 км)
Погода в Cannanore (Kerala, Индия) (131 км)
Погода в Shirali (Karnataka, Индия) (133 км)
Погода в Shimoga (Karnataka, Индия) (139 км)
Погода в Hassan (Karnataka, Индия) (157 км)
Погода в Honavar (Karnataka, Индия) (158 км)
Погода в Davangere (Karnataka, Индия) (209 км)

Пояснения к столбцам:

Ветер - указаны скорость ветра в м/с - средняя за 10 мин, порывы в срок и между сроками (в фигурных скобках) и направление, откуда дует ветер: С - северный, СВ - северо-восточный, В - восточный, ЮВ - юго-восточный, Ю - южный, ЮЗ - юго-западный, З - западный, СЗ - северо-западный.
Видимость - горизонтальная дальность видимости в метрах или километрах. При видимости от 1 до 10 км при отсутствии осадков обычно наблюдается дымка, при ухудшении видимости до 1 км и менее - туман. В сухую погоду видимость может ухудшаться дымом, пылью или мглою.
Явления - указаны атмосферные явления, наблюдавшиеся в срок или в последний час перед сроком; фигурными скобками обозначены явления, наблюдавшиеся между сроками (за 1-3 часа до срока); квадратными скобками обозначены град или гололедные отложения с указанием их диаметра в мм.
Облачность - указаны через наклонную черту общая и нижняя облачность в баллах и высота нижней границы облаков в метрах; квадратными скобками обозначены формы облаков: Ci - перистые, Cs - перисто-слоистые, Cc - перисто-кучевые, Ac - высококучевые, As - высокослоистые, Sc - слоисто-кучевые, Ns - слоисто-дождевые, Cu - кучевые, Cb - кучево-дождевые. Подробнее классификацию облаков см. в Атласе облаков (PDF).
T - Температура воздуха - температура, измеренная на высоте 2 м над землей.
Td - Температура точки росы - температура, при понижении до которой содержащийся в воздухе водяной пар достигнет насыщения.
f - Относительная влажность воздуха - влажноcть воздуха, измеренная на высоте 2 м над землей.
Te - Эффективная температура - температура, которую ощущает одетый по сезону человек в тени. Характеристика душности погоды. При расчете учитывается влияние влажности воздуха и скорости ветра на теплоощущения человека.
Tes - Эффективная температура на солнце - температура, которую ощущает человек, с поправкой на солнечный нагрев. Характеристика знойности погоды. Зависит от высоты солнца над горизонтом, облачности и скорости ветра. Ночью, в пасмурную погоду, а также при ветре 12 м/с и более поправка равна нулю.
P - Атмосферное давление - приведенное к уровню моря атмосферное давление.
Po - Атмосферное давление - измеренное на уровне метеостанции атмосферное давление.
Tmin - Минимальная температура - минимум температуры воздуха на высоте 2 м над землей.
Tmax - Максимальная температура - максимум температуры воздуха на высоте 2 м над землей.
R - Количество осадков - Количество выпавших осадков за период времени, мм. При наведении курсора мыши на число - период времени, за который выпало указанное количество осадков.
R24 - Количество осадков - Количество выпавших осадков за 24 часа, мм.
S - Снежный покров - Высота снежного покрова, см. При наведении курсора мыши на число - состояние снежного покрова и степень покрытия местности в баллах.